FW4335 Weather Reports


Display with metric or nautical units.
time (UTC)temp
F
wind
direction
speed
MPH
gust
MPH
rain 1hr
in
rain 24hr
in
rain mn
in
humidity
%
barometer
mb
20260901034533 61 202 0.0 1.0 0.00 0.00 0.00 68 1010.7
20260901033038 63 202 0.0 0.0 0.00 0.00 0.00 63 1010.4
20260901031537 65 202 0.0 0.0 0.00 0.00 0.00 59 1010.3
20260901030034 66 202 0.0 0.0 0.00 0.00 0.00 56 1010.1
20260901024537 67 202 0.0 1.0 0.00 0.00 0.00 52 1010.0
20260901020036 73 202 0.0 2.0 0.00 0.00 0.00 44 1009.7
20260901014611 76 250 0.0 3.0 0.00 0.00 0.00 39 1009.7
20260901013032 81 299 0.0 2.0 0.00 0.00 0.00 34 1009.7
20260901011535 83 15 0.0 0.0 0.00 0.00 0.00 37 1009.7
20260901010033 85 22 0.0 0.0 0.00 0.00 0.00 36 1009.7
20260901004535 85 22 0.0 0.0 0.00 0.00 0.00 35 1009.8
20260901003038 84 22 0.0 0.0 0.00 0.00 0.00 30 1010.0
20260901001534 85 36 0.0 3.0 0.00 0.00 0.00 26 1010.1
20260901000035 85 75 0.0 5.0 0.00 0.00 0.00 27 1010.2
20260831234536 84 20 0.0 6.0 0.00 0.00 0.00 28 1010.4
20260831233035 84 44 0.0 5.0 0.00 0.00 0.00 28 1010.5
20260831231536 84 15 1.0 5.0 0.00 0.00 0.00 27 1010.7
20260831230038 84 34 2.0 7.0 0.00 0.00 0.00 26 1010.9
20260831224532 84 19 2.0 9.0 0.00 0.00 0.00 27 1011.2
20260831223034 84 26 2.0 10.0 0.00 0.00 0.00 27 1011.4
20260831221641 84 28 2.0 10.0 0.00 0.00 0.00 28 1011.6
20260831220035 83 32 1.0 5.0 0.00 0.00 0.00 30 1011.8
20260831214535 82 26 2.0 9.0 0.00 0.00 0.00 32 1012.4
20260831211608 82 30 2.0 9.0 0.00 0.00 0.00 34 1012.5
20260831204534 81 22 2.0 8.0 0.00 0.00 0.00 36 1012.8
20260831203143 81 8 2.0 7.0 0.00 0.00 0.00 36 1013.2
20260831201608 80 38 2.0 11.0 0.00 0.00 0.00 35 1013.6
20260831191537 78 31 2.0 7.0 0.00 0.00 0.00 39 1014.7
20260831190034 77 17 2.0 6.0 0.00 0.00 0.00 42 1014.9
20260831184531 75 358 1.0 5.0 0.00 0.00 0.00 45 1015.2
20260831181536 76 334 0.0 5.0 0.00 0.00 0.00 55 1015.8
20260831180148 72 303 0.0 3.0 0.00 0.00 0.00 60 1016.1
20260831174537 69 9 0.0 4.0 0.00 0.00 0.00 59 1016.2
20260831173036 69 28 1.0 4.0 0.00 0.00 0.00 59 1016.5
20260831171537 68 353 0.0 3.0 0.00 0.00 0.00 61 1016.6
20260831170036 67 26 0.0 2.0 0.00 0.00 0.00 61 1016.8
20260831164531 66 43 0.0 2.0 0.00 0.00 0.00 65 1017.0
20260831163035 64 19 0.0 2.0 0.00 0.00 0.00 69 1017.1
20260831161658 62 22 0.0 1.0 0.00 0.00 0.00 74 1017.3
20260831160031 60 47 0.0 1.0 0.00 0.00 0.00 77 1017.5
20260831153141 56 292 0.0 0.0 0.00 0.00 0.00 86 1017.7
20260831151535 54 240 0.0 0.0 0.00 0.00 0.00 93 1017.7
20260831150035 51 225 0.0 0.0 0.00 0.00 0.00 96 1017.6
20260831144534 47 225 0.0 0.0 0.00 0.00 0.00 96 1017.4
20260831143034 44 225 0.0 0.0 0.00 0.00 0.00 96 1017.3
20260831141643 43 225 0.0 0.0 0.00 0.00 0.00 96 1017.2
20260831133038 43 225 0.0 1.0 0.00 0.00 0.00 95 1017.1
20260831131611 43 225 0.0 0.0 0.00 0.00 0.00 95 1017.1
20260831124536 43 225 0.0 0.0 0.00 0.00 0.00 94 1017.0
20260831123033 44 225 0.0 0.0 0.00 0.00 0.00 94 1017.0
20260831121535 44 225 0.0 0.0 0.00 0.00 0.00 94 1017.0
20260831120144 44 225 0.0 0.0 0.00 0.00 0.00 94 1017.1
20260831114642 44 225 0.0 2.0 0.00 0.00 0.00 94 1017.1
20260831111535 45 225 0.0 0.0 0.00 0.00 0.00 93 1017.2
20260831110111 45 225 0.0 1.0 0.00 0.00 0.00 93 1017.2
20260831104536 45 225 0.0 1.0 0.00 0.00 0.00 93 1017.2
20260831103152 46 225 0.0 1.0 0.00 0.00 0.00 93 1017.2
20260831101534 46 225 0.0 0.0 0.00 0.00 0.00 92 1017.2
20260831094537 47 225 0.0 0.0 0.00 0.00 0.00 92 1017.5
20260831093035 47 225 0.0 1.0 0.00 0.00 0.00 91 1017.6
20260831091534 47 225 0.0 1.0 0.00 0.00 0.00 91 1017.7
20260831090034 47 225 0.0 0.0 0.00 0.00 0.00 91 1017.6
20260831084534 48 225 0.0 1.0 0.00 0.00 0.00 90 1017.7
20260831083037 48 225 0.0 0.0 0.00 0.00 0.00 89 1017.8
20260831080146 49 225 0.0 2.0 0.00 0.00 0.00 88 1018.0
20260831074533 49 225 0.0 0.0 0.00 0.00 0.00 88 1018.0
20260831073036 50 211 0.0 1.0 0.00 0.00 0.00 88 1018.1
20260831071650 50 180 0.0 0.0 0.00 0.00 0.00 87 1018.1
20260831070033 50 180 0.0 0.0 0.00 0.00 0.00 86 1018.2
20260831064533 51 180 0.0 0.0 0.00 0.00 0.00 86 1018.2
20260831063110 51 182 0.0 0.0 0.00 0.00 0.00 85 1018.3
20260831061532 51 202 0.0 0.0 0.00 0.00 0.00 85 1018.4
20260831060109 52 202 0.0 0.0 0.00 0.00 0.00 84 1018.4
20260831054607 52 202 0.0 0.0 0.00 0.00 0.00 83 1018.4
20260831053034 53 202 0.0 1.0 0.00 0.00 0.00 82 1018.5
20260831044532 55 202 0.0 2.0 0.00 0.00 0.00 78 1018.6
20260831043034 56 180 0.0 0.0 0.00 0.00 0.00 77 1018.5
20260831040034 58 213 0.0 2.0 0.00 0.00 0.00 73 1018.5